User: anonymous   Login
Location: Cluny
(50.9333°N, 112.8167°W)
Time: 07:00:28
(UTC-06:00)
Language:

Hamsat - Orbit

View from above orbital plane
View from above orbital plane
View from above satellite
View from above satellite

Ground track
Ground track

The orbit data is extracted from the following two-line orbital elements,

1 28650U 05017B   17145.50323823 +.00000272 +00000-0 +34813-4 0  9992
2 28650 097.6493 120.6122 0022847 202.2634 157.7594 14.88655207652723
Epoch (UTC): 25 May 2017 12:04:39
Eccentricity: 0.0022847
inclination: 97.6493°
perigee height: 586 km
apogee height: 618 km
right ascension of ascending node: 120.6122°
argument of perigee: 202.2634°
revolutions per day: 14.88655207
mean anomaly at epoch: 157.7594°
orbit number at epoch: 65272

The dashed part of the orbit path shows where the satellite is in the earth's shadow,  

DLR